Погода в Красной Дубраве

Россия / Пензенская область     53°39′32″N   42°41′17″E
темп.,
°C
ветер,
м/с
пор.,
м/с
влажн.,
%
обл.,
%
осадки,
мм/ч
давл.,
гПа
погр.,
м
9 мая, вс
вс900:00+12ююв81691100 1.3 1006618
03:00+12ю61293100 1.4 1006455
06:00+11ю51096100 0.0 1007470
09:00+11ююз4896100 2.9 1007507
12:00+8юз5891100 3.8 1009499
15:00+7юз3693100 7.5 1011473
18:00+6зсз6794100 1.6 1014541
21:00+5зсз4895100 1.6 1016488
10 мая, пн
пн1000:00+5сз4895100 0.0 1018484
03:00+5ссз4996100 0.0 1019549
06:00+6с61194100 0.0 1021606
09:00+6с61293100 0.3 1022630
12:00+7ссв71290100 0.3 1024616
15:00+10ссв91384100 0.3 1023608
18:00+10св71286100 0.0 1025734
21:00+8св7159081 0.0 1026526
11 мая, вт
вт1100:00+7св71594100 0.0 1026444
03:00+6св7159586 0.0 1025402
06:00+7св71591100 0.0 1026425
09:00+9св71490100 0.4 1026370
12:00+14всв8117765 0.1 1026616
15:00+18всв796993 0.1 10261199
18:00+17св712785 0.0 1025718
21:00+14всв71587100 0.0 1025443
12 мая, ср
ср1200:00+12всв379670 0.2 1026188
03:00+11св5109693 0.2 1024221
06:00+13в71588100 0.1 1024387
09:00+15в61482100 0.1 1024619
12:00+16вюв5108097 0.1 1025572
15:00+21вюв5105947 0.1 10241452
18:00+16вюв397695 0.0 1024188
21:00+15вюв5127294 0.0 1024289
13 мая, чт
чт1300:00+15в41374100 0.0 1023341
03:00+13в5137869 0.0 1022292
06:00+14в6157153 0.1 1021389
09:00+14юв61379100 0.3 1022572
12:00+14вюв6148127 0.2 1022663
15:00+20юв796226 0.2 10211245
18:00+19юв510756 0.1 1021529
21:00+15юв49865 0.1 1021164